CAPE
0 0 0 0 0 0 0 0 0 0 0 0 0 0 0 0 0 0 0 0 0 0 15 322 1253 1188 1395 1896 2369 2418 1904 1984 1463 1008 912 889 830 783 803 954 1078 1255 1443 1424
0 0 0 0 0 0 0 0 0 0 0 0 0 0 0 0 0 6 17 24 38 57 1 0 254 1249 1282 1492 2262 2529 2323 2326 1720 1005 1119 1385 1098 944 940 1034 1242 1391 1216 1018
0 0 0 0 0 0 0 0 0 0 0 0 0 0 0 1 38 36 77 89 257 603 199 0 0 232 1060 1056 835 1659 2386 2570 2134 1886 1725 1603 1347 1343 1317 1413 1357 1372 1228 957
0 0 0 0 0 0 0 0 0 0 0 0 0 0 0 0 18 120 126 30 61 567 1496 617 22 0 241 859 738 850 1880 1939 1834 1996 1964 2303 1840 1782 1722 1926 1710 1676 1307 1036
0 0 0 0 0 0 0 0 0 0 0 0 0 0 0 0 3 21 128 133 96 580 1667 1942 1253 699 421 411 554 606 929 1460 2089 1735 1924 1785 1991 1850 1881 1567 1906 1785 1266 901
0 0 0 0 0 0 0 0 0 0 0 0 0 0 0 0 0 0 11 36 174 244 1078 1981 2308 2082 1683 956 626 645 996 1352 1480 1383 1462 1655 1721 1888 1635 1640 1667 1470 812 658
0 0 0 0 0 0 0 0 0 0 0 0 0 0 0 0 0 0 0 181 856 893 916 1071 940 2012 2412 2035 1803 1383 1335 1422 1460 1496 1662 1800 1999 2063 2153 2389 1171 796 499 557
0 0 0 0 0 0 0 0 0 0 0 0 0 0 0 0 0 0 460 911 983 973 996 1112 1336 1364 2140 2879 2748 2525 2553 2702 2792 1977 1549 1343 982 873 575 439 571 510 950 1238
0 0 0 0 0 0 0 0 0 0 0 0 0 0 0 0 0 0 390 781 782 787 896 1062 1241 1500 1847 2398 3003 3220 3255 2197 2075 1823 1193 832 557 160 277 365 728 1290 1664 1408
0 0 0 0 0 0 0 0 0 0 0 0 0 0 0 0 8 189 362 337 244 312 558 861 1260 1612 1736 1963 2794 2632 2703 2640 2226 1855 1398 1002 568 190 8 65 93 861 920 836
0 0 0 0 0 0 0 0 0 0 0 0 0 0 0 23 12 6 2 116 90 48 342 934 1399 1599 1775 1792 2598 2402 2613 2609 2249 1628 1331 1079 641 189 0 1 53 665 521 512
0 0 0 0 0 0 0 0 0 0 0 0 0 0 0 0 0 0 0 80 75 65 190 810 965 1135 1571 1939 2227 1937 2327 2282 1981 1637 1267 581 257 0 39 234 315 384 301 358
0 0 0 0 0 0 0 0 0 0 0 0 0 0 0 0 0 0 0 1 43 94 146 363 592 776 843 866 2024 1953 1906 2156 1656 1183 846 333 13 84 357 335 197 55 54 9
0 0 0 0 0 0 0 0 0 0 0 0 0 0 0 0 0 0 0 0 31 116 88 92 62 271 705 741 1016 1174 1535 1938 1447 1017 495 35 55 394 324 167 1 0 0 0
0 0 0 0 0 0 0 0 0 0 0 0 0 0 0 0 0 0 0 0 0 0 0 0 5 11 96 525 440 762 918 1406 1228 696 353 136 513 467 300 8 0 0 0 0
0 0 0 0 0 0 0 0 0 0 0 0 0 0 0 0 0 0 0 0 0 14 20 19 9 10 22 364 353 473 837 951 1655 1352 570 242 628 324 220 30 1 0 1 0
0 0 0 0 0 0 0 0 0 0 0 0 0 0 0 0 0 1 7 15 12 6 8 8 0 0 0 2 346 467 699 853 788 805 707 592 617 307 194 64 43 17 2 0
0 0 0 0 0 0 0 0 0 0 0 0 0 0 8 21 21 15 3 1 0 0 0 0 0 0 14 17 81 235 801 763 706 672 605 734 889 480 220 126 49 15 3 1
0 0 0 0 0 0 0 0 0 0 0 0 0 0 0 0 0 5 0 0 0 0 0 0 0 0 36 18 24 38 276 769 712 745 661 418 449 411 159 77 16 15 0 0
0 0 0 0 0 0 0 0 0 0 0 0 0 0 0 0 0 0 0 0 0 0 0 0 0 0 0 7 0 7 27 493 915 634 598 575 391 199 59 42 51 0 0 0
0 0 0 0 0 0 0 0 0 0 0 0 0 0 0 0 0 0 0 0 0 0 0 0 0 0 3 19 11 20 72 159 818 677 581 508 270 199 105 22 2 0 0 0
0 0 0 0 0 0 0 0 0 0 0 0 0 0 0 0 0 0 0 0 0 0 0 0 0 0 0 3 3 17 189 436 883 730 524 339 206 176 78 6 0 0 0 0
0 0 0 0 0 0 0 0 0 0 0 0 0 0 0 0 0 0 0 0 0 0 0 0 0 0 0 7 0 0 245 691 641 350 417 211 137 28 45 42 0 0 0 0
0 0 0 0 0 0 0 0 0 0 0 0 0 0 0 0 0 0 0 0 0 0 0 0 0 0 0 0 0 116 490 551 376 156 191 100 104 1 7 4 0 0 0 0
0 0 0 0 0 0 0 0 0 0 0 0 0 0 0 0 0 0 0 0 0 0 0 9 3 5 11 11 47 495 330 241 163 70 33 74 52 26 0 0 0 0 0 0
0 0 0 0 0 0 0 0 0 0 0 0 0 0 0 0 0 0 0 0 0 0 11 14 57 142 28 53 523 271 149 164 103 112 90 8 8 21 0 0 0 0 0 0
CIN
0 0 0 0 0 0 0 0 0 0 0 0 0 0 0 0 0 0 0 0 0 0 -263 -218 -253 -439 -446 -372 -401 -420 -471 -475 -492 -467 -281 -268 -400 -381 -368 -349 -338 -290 -224 -170
0 0 0 0 0 0 0 0 0 0 0 0 0 0 0 0 0 -31 -33 -37 -153 -212 -126 0 -400 -471 -549 -480 -435 -393 -434 -451 -520 -521 -321 -336 -324 -336 -320 -332 -346 -292 -309 -281
0 0 0 0 0 0 0 0 0 0 0 0 0 0 0 -6 -46 -58 -52 -58 -146 -346 -459 0 0 -496 -510 -578 -655 -471 -401 -401 -487 -478 -419 -421 -446 -450 -415 -385 -361 -338 -286 -279
0 0 0 0 0 0 0 0 0 0 0 0 0 0 0 0 -10 -21 -22 -40 -48 -323 -276 -367 -138 0 -597 -549 -682 -699 -530 -500 -490 -465 -428 -395 -326 -272 -252 -252 -310 -270 -290 -124
0 0 0 0 0 0 0 0 0 0 0 0 0 0 0 0 -70 -16 -15 -22 -19 -154 -261 -277 -405 -469 -547 -667 -714 -823 -741 -636 -448 -496 -445 -387 -340 -284 -271 -313 -230 -212 -247 -74
0 0 0 0 0 0 0 0 0 0 0 0 0 0 0 0 0 0 -11 -21 -24 -197 -94 -181 -238 -273 -386 -598 -102 -300 -733 -648 -556 -520 -398 -261 -201 -137 -142 -134 -145 -170 -55 -114
0 0 0 0 0 0 0 0 0 0 0 0 0 0 0 0 0 0 0 -315 -290 -317 -334 -159 -268 -260 -316 -381 -413 -498 -541 -464 -490 -431 -342 -229 -101 -16 0 0 -42 -53 -62 -36
0 0 0 0 0 0 0 0 0 0 0 0 0 0 0 0 0 0 -215 -224 -256 -324 -328 -330 -363 -364 -251 -256 -316 -345 -356 -292 -273 -363 -351 -230 -151 -380 -265 -197 -45 -27 -17 -2
0 0 0 0 0 0 0 0 0 0 0 0 0 0 0 0 0 0 -237 -255 -297 -338 -341 -356 -352 -385 -371 -307 -260 -247 -234 -321 -308 -231 -133 -150 -88 -124 -403 -360 -199 -50 -1 -2
0 0 0 0 0 0 0 0 0 0 0 0 0 0 0 0 -121 -236 -242 -284 -343 -357 -334 -348 -347 -369 -363 -338 -220 -269 -217 -124 -83 -46 -62 -44 -40 -89 -336 -542 -361 -3 0 0
0 0 0 0 0 0 0 0 0 0 0 0 0 0 0 -195 -215 -113 -284 -223 -219 -228 -326 -299 -279 -299 -317 -324 -208 -235 -175 -132 -94 -53 -47 -58 -72 -103 0 -210 -317 -1 0 0
0 0 0 0 0 0 0 0 0 0 0 0 0 0 0 0 0 0 -32 -194 -177 -327 -317 -249 -273 -302 -290 -255 -206 -225 -132 -125 -106 -82 -81 -91 -89 0 -256 -180 -61 -6 0 0
0 0 0 0 0 0 0 0 0 0 0 0 0 0 0 0 0 0 0 -56 -152 -230 -226 -236 -246 -266 -299 -331 -133 -127 -116 -86 -134 -97 -80 -138 -165 -227 -150 -65 -43 -68 -44 -37
0 0 0 0 0 0 0 0 0 0 0 0 0 0 0 0 0 0 0 0 -98 -86 -101 -94 -82 -251 -184 -210 -172 -148 -99 -53 -106 -65 -69 -182 -272 -202 -121 -78 0 0 0 0
0 0 0 0 0 0 0 0 0 0 0 0 0 0 0 0 0 0 0 0 0 0 0 0 -109 -109 -139 -171 -206 -155 -117 -47 -82 -112 -77 -200 -172 -118 -111 -51 0 0 0 0
0 0 0 0 0 0 0 0 0 0 0 0 0 0 0 0 0 0 0 0 0 -15 -12 -8 -7 -6 -144 -131 -134 -146 -85 -61 -6 -17 -81 -143 -82 -79 -101 -83 -97 0 -35 0
0 0 0 0 0 0 0 0 0 0 0 0 0 0 0 0 0 -2 -9 -5 -6 -8 -3 -2 0 0 0 -52 -87 -93 -70 -34 -44 -47 -54 -57 -23 -66 -91 -61 -43 -37 -15 -1
0 0 0 0 0 0 0 0 0 0 0 0 0 0 -1 -1 -3 -2 0 -1 0 0 0 0 0 0 -127 -160 -154 -92 -19 -30 -29 -31 -38 -36 -1 -5 -30 -20 -33 -30 -23 -1
0 0 0 0 0 0 0 0 0 0 0 0 0 0 0 0 0 -21 0 0 0 0 0 0 0 0 -152 -134 -136 -123 -52 -16 -13 -1 -13 -27 -22 -8 -15 -2 -8 -13 0 0
0 0 0 0 0 0 0 0 0 0 0 0 0 0 0 0 0 0 0 0 0 0 0 0 0 0 0 -110 0 -101 -95 -27 -8 -7 -24 -1 -1 -20 -19 -4 -1 0 0 0
0 0 0 0 0 0 0 0 0 0 0 0 0 0 0 0 0 0 0 0 0 0 0 0 0 0 -13 -159 -121 -91 -93 -42 -4 -25 -9 0 -1 -2 -11 -10 -3 0 0 0
0 0 0 0 0 0 0 0 0 0 0 0 0 0 0 0 0 0 0 0 0 0 0 0 0 0 0 -32 -71 -97 -54 -30 -3 -11 -1 -2 -1 -7 -6 -3 0 0 0 0
0 0 0 0 0 0 0 0 0 0 0 0 0 0 0 0 0 0 0 0 0 0 0 0 0 0 0 -70 -7 0 -60 -18 -6 -18 -1 -4 0 -75 -7 -2 0 0 0 0
0 0 0 0 0 0 0 0 0 0 0 0 0 0 0 0 0 0 0 0 0 0 0 0 0 0 0 -6 -16 -87 -33 -16 -8 -17 -1 -5 0 0 -1 -13 0 0 0 0
0 0 0 0 0 0 0 0 0 0 0 0 0 0 0 0 0 0 0 0 0 0 -1 -6 -15 -28 -87 -104 -115 -40 -20 -19 -16 -25 -10 0 -1 0 -1 0 0 0 0 0
0 0 0 0 0 0 0 0 0 0 0 0 0 0 0 0 0 0 0 0 0 0 -7 -14 -40 -47 -91 -43 -36 -50 -4 -4 -5 0 0 0 -5 -24 0 0 0 0 0 0
Wind_Speed
nan nan nan nan nan nan nan nan nan nan nan nan nan nan nan nan nan nan nan nan nan nan nan 10 18 20 11 12 12 21 26 23 26 25 11 11 17 20 21 23 23 26 30 35
nan nan nan nan nan nan nan nan nan nan nan nan nan nan nan nan nan nan nan nan nan nan nan nan 10 16 18 11 16 18 25 26 28 34 34 23 20 23 25 27 28 32 35 44
nan nan nan nan nan nan nan nan nan nan nan nan nan nan nan nan nan nan nan nan 15 12 13 nan nan 17 10 12 10 16 17 20 29 29 31 29 29 30 33 34 35 39 41 49
nan nan nan nan nan nan nan nan nan nan nan nan nan nan nan nan nan 8 10 nan nan 14 13 12 nan nan 3 2 11 19 23 24 19 28 28 31 32 31 31 31 35 39 43 49
nan nan nan nan nan nan nan nan nan nan nan nan nan nan nan nan nan nan 17 19 nan 21 17 15 16 16 12 9 14 22 24 25 23 23 22 27 26 24 30 33 34 38 42 47
nan nan nan nan nan nan nan nan nan nan nan nan nan nan nan nan nan nan nan nan 27 26 24 23 24 26 25 19 11 20 21 21 23 25 24 21 21 24 28 33 36 39 42 49
nan nan nan nan nan nan nan nan nan nan nan nan nan nan nan nan nan nan nan 23 28 27 30 28 29 22 31 21 17 22 26 27 28 33 42 39 44 42 36 34 37 37 53 35
nan nan nan nan nan nan nan nan nan nan nan nan nan nan nan nan nan nan 15 16 22 23 23 26 26 22 12 21 23 27 31 39 46 52 49 49 56 53 42 39 35 40 25 31
nan nan nan nan nan nan nan nan nan nan nan nan nan nan nan nan nan nan 21 18 20 22 23 25 24 26 24 24 32 29 37 47 49 49 47 48 53 61 55 57 40 60 44 46
nan nan nan nan nan nan nan nan nan nan nan nan nan nan nan nan nan 22 23 22 22 22 25 31 32 32 29 28 29 38 42 45 43 46 49 51 55 57 nan nan nan 46 57 51
nan nan nan nan nan nan nan nan nan nan nan nan nan nan nan nan nan nan nan 23 nan nan 26 26 28 33 31 28 27 38 45 45 43 42 44 45 49 54 nan nan nan 50 58 45
nan nan nan nan nan nan nan nan nan nan nan nan nan nan nan nan nan nan nan nan nan nan 31 32 32 36 39 35 34 42 45 48 49 43 39 44 54 nan nan 49 45 43 48 34
nan nan nan nan nan nan nan nan nan nan nan nan nan nan nan nan nan nan nan nan nan nan 37 37 39 41 41 40 39 42 46 46 44 43 45 50 nan nan 53 46 39 nan nan nan
nan nan nan nan nan nan nan nan nan nan nan nan nan nan nan nan nan nan nan nan nan 42 nan nan nan 42 43 42 42 41 44 45 41 37 42 nan nan 52 40 35 nan nan nan nan
nan nan nan nan nan nan nan nan nan nan nan nan nan nan nan nan nan nan nan nan nan nan nan nan nan nan nan 43 41 42 46 51 42 39 43 48 53 52 41 nan nan nan nan nan
nan nan nan nan nan nan nan nan nan nan nan nan nan nan nan nan nan nan nan nan nan nan nan nan nan nan nan 42 42 41 42 48 53 49 48 43 51 46 38 nan nan nan nan nan
nan nan nan nan nan nan nan nan nan nan nan nan nan nan nan nan nan nan nan nan nan nan nan nan nan nan nan nan 38 40 42 44 50 53 53 47 48 52 44 nan nan nan nan nan
nan nan nan nan nan nan nan nan nan nan nan nan nan nan nan nan nan nan nan nan nan nan nan nan nan nan nan nan nan 42 42 48 53 53 54 48 45 42 37 29 nan nan nan nan
nan nan nan nan nan nan nan nan nan nan nan nan nan nan nan nan nan nan nan nan nan nan nan nan nan nan nan nan nan nan 45 48 50 46 45 40 39 33 27 nan nan nan nan nan
nan nan nan nan nan nan nan nan nan nan nan nan nan nan nan nan nan nan nan nan nan nan nan nan nan nan nan nan nan nan nan 41 39 37 33 43 30 26 nan nan nan nan nan nan
nan nan nan nan nan nan nan nan nan nan nan nan nan nan nan nan nan nan nan nan nan nan nan nan nan nan nan nan nan nan nan 35 30 26 28 28 20 25 26 nan nan nan nan nan
nan nan nan nan nan nan nan nan nan nan nan nan nan nan nan nan nan nan nan nan nan nan nan nan nan nan nan nan nan nan 37 31 28 24 32 33 29 28 nan nan nan nan nan nan
nan nan nan nan nan nan nan nan nan nan nan nan nan nan nan nan nan nan nan nan nan nan nan nan nan nan nan nan nan nan 25 20 16 24 33 31 27 nan nan nan nan nan nan nan
nan nan nan nan nan nan nan nan nan nan nan nan nan nan nan nan nan nan nan nan nan nan nan nan nan nan nan nan nan 19 19 11 10 22 25 21 23 nan nan nan nan nan nan nan
nan nan nan nan nan nan nan nan nan nan nan nan nan nan nan nan nan nan nan nan nan nan nan nan nan nan nan nan nan 14 17 9 14 nan nan nan nan nan nan nan nan nan nan nan
nan nan nan nan nan nan nan nan nan nan nan nan nan nan nan nan nan nan nan nan nan nan nan nan nan 14 nan nan 16 20 17 13 13 11 nan nan nan nan nan nan nan nan nan nan
Wind_Direction
nan nan nan nan nan nan nan nan nan nan nan nan nan nan nan nan nan nan nan nan nan nan nan 57 19 356 342 334 357 353 349 342 320 314 289 332 335 315 314 310 314 312 308 309
nan nan nan nan nan nan nan nan nan nan nan nan nan nan nan nan nan nan nan nan nan nan nan nan 341 330 339 349 358 2 345 331 320 307 326 327 311 313 310 303 306 306 302 298
nan nan nan nan nan nan nan nan nan nan nan nan nan nan nan nan nan nan nan nan 208 160 126 nan nan 320 316 353 335 330 322 317 319 315 307 312 306 299 297 299 297 295 297 295
nan nan nan nan nan nan nan nan nan nan nan nan nan nan nan nan nan 270 225 nan nan 175 207 266 nan nan 223 199 310 309 313 318 300 312 310 316 307 306 301 298 293 293 295 294
nan nan nan nan nan nan nan nan nan nan nan nan nan nan nan nan nan nan 188 196 nan 215 240 251 268 253 224 258 295 313 311 320 304 298 307 311 305 293 287 289 293 290 287 291
nan nan nan nan nan nan nan nan nan nan nan nan nan nan nan nan nan nan nan nan 207 214 225 238 249 249 233 264 263 307 307 304 294 275 267 276 279 285 282 280 280 281 281 281
nan nan nan nan nan nan nan nan nan nan nan nan nan nan nan nan nan nan nan 220 224 223 233 228 235 240 240 240 274 256 240 250 271 270 276 279 283 279 274 273 275 277 272 289
nan nan nan nan nan nan nan nan nan nan nan nan nan nan nan nan nan nan 247 231 226 224 235 236 241 248 265 252 263 271 277 295 294 300 301 300 299 294 282 291 308 311 315 311
nan nan nan nan nan nan nan nan nan nan nan nan nan nan nan nan nan nan 253 246 235 234 246 246 242 242 242 249 273 280 288 293 297 304 306 299 296 299 320 325 314 320 317 300
nan nan nan nan nan nan nan nan nan nan nan nan nan nan nan nan nan 250 246 246 247 238 228 229 235 239 250 256 275 282 290 290 296 306 304 307 312 314 nan nan nan 308 312 293
nan nan nan nan nan nan nan nan nan nan nan nan nan nan nan nan nan nan nan 256 nan nan 246 234 232 227 231 241 263 288 296 305 304 297 295 298 299 299 nan nan nan 319 320 281
nan nan nan nan nan nan nan nan nan nan nan nan nan nan nan nan nan nan nan nan nan nan 257 260 255 250 252 254 265 286 294 299 301 301 302 306 298 nan nan 303 312 318 323 282
nan nan nan nan nan nan nan nan nan nan nan nan nan nan nan nan nan nan nan nan nan nan 259 260 261 263 264 271 276 287 294 294 295 294 297 302 nan nan 303 309 315 nan nan nan
nan nan nan nan nan nan nan nan nan nan nan nan nan nan nan nan nan nan nan nan nan 264 nan nan nan 260 262 266 273 283 289 289 286 293 295 nan nan 304 304 312 nan nan nan nan
nan nan nan nan nan nan nan nan nan nan nan nan nan nan nan nan nan nan nan nan nan nan nan nan nan nan nan 265 270 278 292 298 297 293 298 303 308 296 300 nan nan nan nan nan
nan nan nan nan nan nan nan nan nan nan nan nan nan nan nan nan nan nan nan nan nan nan nan nan nan nan nan 271 277 281 288 296 300 296 299 309 307 301 300 nan nan nan nan nan
nan nan nan nan nan nan nan nan nan nan nan nan nan nan nan nan nan nan nan nan nan nan nan nan nan nan nan nan 276 280 287 291 292 294 303 300 304 301 309 nan nan nan nan nan
nan nan nan nan nan nan nan nan nan nan nan nan nan nan nan nan nan nan nan nan nan nan nan nan nan nan nan nan nan 280 284 283 285 294 297 297 299 297 302 310 nan nan nan nan
nan nan nan nan nan nan nan nan nan nan nan nan nan nan nan nan nan nan nan nan nan nan nan nan nan nan nan nan nan nan 276 276 279 284 297 293 294 301 304 nan nan nan nan nan
nan nan nan nan nan nan nan nan nan nan nan nan nan nan nan nan nan nan nan nan nan nan nan nan nan nan nan nan nan nan nan 271 276 281 298 286 285 299 nan nan nan nan nan nan
nan nan nan nan nan nan nan nan nan nan nan nan nan nan nan nan nan nan nan nan nan nan nan nan nan nan nan nan nan nan nan 267 282 281 292 293 284 275 276 nan nan nan nan nan
nan nan nan nan nan nan nan nan nan nan nan nan nan nan nan nan nan nan nan nan nan nan nan nan nan nan nan nan nan nan 264 269 277 265 283 283 263 255 nan nan nan nan nan nan
nan nan nan nan nan nan nan nan nan nan nan nan nan nan nan nan nan nan nan nan nan nan nan nan nan nan nan nan nan nan 260 259 261 274 277 270 254 nan nan nan nan nan nan nan
nan nan nan nan nan nan nan nan nan nan nan nan nan nan nan nan nan nan nan nan nan nan nan nan nan nan nan nan nan 265 258 218 254 272 275 278 283 nan nan nan nan nan nan nan
nan nan nan nan nan nan nan nan nan nan nan nan nan nan nan nan nan nan nan nan nan nan nan nan nan nan nan nan nan 240 233 242 283 nan nan nan nan nan nan nan nan nan nan nan
nan nan nan nan nan nan nan nan nan nan nan nan nan nan nan nan nan nan nan nan nan nan nan nan nan 254 nan nan 229 241 241 266 283 277 nan nan nan nan nan nan nan nan nan nan